Time,TemperatureF,DewpointF,PressureIn,WindDirection,WindDirectionDegrees,WindSpeedMPH,WindSpeedGustMPH,Humidity,HourlyPrecipIn,Conditions,Clouds,dailyrainin,SolarRadiationWatts/m^2,SoftwareType,DateUTC
2013-11-05 00:01:00,47.9,46.5,30.17,SE,144,8.0,9.0,95,0.02,,OVC020,0.00,0.00,VWS V14.01,2013-11-05 08:01:00,
2013-11-05 00:06:00,47.9,46.5,30.17,SE,145,6.0,11.0,95,0.02,,OVC020,0.00,0.00,VWS V14.01,2013-11-05 08:06:00,
2013-11-05 00:11:00,47.9,46.5,30.18,SE,146,3.0,11.0,95,0.02,,OVC020,0.00,0.00,VWS V14.01,2013-11-05 08:11:00,
2013-11-05 00:16:00,47.8,46.4,30.18,SE,145,4.0,8.0,95,0.02,,OVC020,0.00,0.00,VWS V14.01,2013-11-05 08:16:00,
2013-11-05 00:21:00,47.9,46.5,30.18,SE,142,4.0,10.0,95,0.02,,OVC020,0.00,0.00,VWS V14.01,2013-11-05 08:21:00,
2013-11-05 00:26:00,47.8,46.4,30.18,SE,143,6.0,10.0,95,0.02,,OVC020,0.00,0.00,VWS V14.01,2013-11-05 08:26:00,
2013-11-05 00:31:00,47.9,46.5,30.18,SE,141,5.0,11.0,95,0.01,,OVC020,0.00,0.00,VWS V14.01,2013-11-05 08:31:00,
2013-11-05 00:36:00,47.8,46.4,30.18,SE,144,5.0,11.0,95,0.01,,OVC020,0.00,0.00,VWS V14.01,2013-11-05 08:36:00,
2013-11-05 00:41:00,47.9,46.5,30.18,SE,144,6.0,8.0,95,0.01,,OVC020,0.00,0.00,VWS V14.01,2013-11-05 08:41:00,
2013-11-05 00:46:00,47.8,46.4,30.17,SSE,151,3.0,9.0,95,0.01,,OVC020,0.00,0.00,VWS V14.01,2013-11-05 08:46:00,
2013-11-05 00:51:00,47.8,46.4,30.17,SE,142,6.0,10.0,95,0.01,,OVC020,0.00,0.00,VWS V14.01,2013-11-05 08:51:00,
2013-11-05 00:56:00,47.8,46.4,30.17,SE,144,2.0,10.0,95,0.01,,OVC020,0.00,0.00,VWS V14.01,2013-11-05 08:56:00,
2013-11-05 01:01:00,47.8,46.4,30.17,SE,143,4.0,8.0,95,0.00,,OVC026,0.00,0.00,VWS V14.01,2013-11-05 09:01:00,
2013-11-05 01:06:00,47.8,46.4,30.17,SE,142,0.0,6.0,95,0.00,,OVC026,0.00,0.00,VWS V14.01,2013-11-05 09:06:00,
2013-11-05 01:11:00,47.8,46.4,30.17,SSE,148,5.0,10.0,95,0.00,,OVC026,0.00,0.00,VWS V14.01,2013-11-05 09:11:00,
2013-11-05 01:16:00,47.8,46.4,30.17,SE,146,7.0,10.0,95,0.00,,OVC026,0.00,0.00,VWS V14.01,2013-11-05 09:16:00,
2013-11-05 01:21:00,47.7,46.6,30.17,SSE,147,6.0,9.0,96,0.00,,OVC026,0.00,0.00,VWS V14.01,2013-11-05 09:21:00,
2013-11-05 01:26:00,47.7,46.6,30.17,SSE,150,6.0,9.0,96,0.00,,OVC026,0.00,0.00,VWS V14.01,2013-11-05 09:26:00,
2013-11-05 01:31:00,47.7,46.3,30.17,SSE,150,5.0,9.0,95,0.00,,OVC026,0.00,0.00,VWS V14.01,2013-11-05 09:31:00,
2013-11-05 01:36:00,47.7,46.3,30.17,SSE,151,6.0,9.0,95,0.00,,OVC026,0.00,0.00,VWS V14.01,2013-11-05 09:36:00,
2013-11-05 01:41:00,47.6,46.2,30.17,SE,141,4.0,11.0,95,0.00,,OVC026,0.00,0.00,VWS V14.01,2013-11-05 09:41:00,
2013-11-05 01:46:00,47.6,46.2,30.17,SE,145,3.0,13.0,95,0.00,,OVC026,0.00,0.00,VWS V14.01,2013-11-05 09:46:00,
2013-11-05 01:51:00,47.6,46.2,30.17,SE,143,4.0,13.0,95,0.00,,OVC026,0.00,0.00,VWS V14.01,2013-11-05 09:51:00,
2013-11-05 01:56:00,47.6,46.5,30.17,SE,141,5.0,8.0,96,0.01,,OVC026,0.01,0.00,VWS V14.01,2013-11-05 09:56:00,
2013-11-05 02:01:00,47.6,46.5,30.17,SE,146,6.0,8.0,96,0.02,,-RA,0.02,0.00,VWS V14.01,2013-11-05 10:01:00,
2013-11-05 02:06:00,47.6,46.5,30.17,SE,146,0.0,9.0,96,0.02,,-RA,0.02,0.00,VWS V14.01,2013-11-05 10:06:00,
2013-11-05 02:11:00,47.6,46.5,30.17,SE,146,3.0,9.0,96,0.03,,-RA,0.03,0.00,VWS V14.01,2013-11-05 10:11:00,
2013-11-05 02:16:00,47.6,46.5,30.17,SE,144,5.0,9.0,96,0.04,,-RA,0.04,0.00,VWS V14.01,2013-11-05 10:16:00,
2013-11-05 02:21:00,47.6,46.5,30.17,SE,146,6.0,8.0,96,0.05,,-RA,0.05,0.00,VWS V14.01,2013-11-05 10:21:00,
2013-11-05 02:26:00,47.6,46.5,30.17,SSE,152,5.0,8.0,96,0.06,,-RA,0.06,0.00,VWS V14.01,2013-11-05 10:26:00,
2013-11-05 02:31:00,47.5,46.4,30.17,SSE,150,6.0,7.0,96,0.06,,-RA,0.06,0.00,VWS V14.01,2013-11-05 10:31:00,
2013-11-05 02:36:00,47.6,46.5,30.18,SSE,150,6.0,8.0,96,0.06,,-RA,0.06,0.00,VWS V14.01,2013-11-05 10:36:00,
2013-11-05 02:41:00,47.5,46.4,30.18,SSE,151,5.0,8.0,96,0.06,,-RA,0.06,0.00,VWS V14.01,2013-11-05 10:41:00,
2013-11-05 02:46:00,47.5,46.4,30.17,SSE,148,6.0,7.0,96,0.06,,-RA,0.06,0.00,VWS V14.01,2013-11-05 10:46:00,
2013-11-05 02:51:00,47.5,46.4,30.18,SE,142,5.0,9.0,96,0.06,,-RA,0.06,0.00,VWS V14.01,2013-11-05 10:51:00,
2013-11-05 02:56:00,47.5,46.4,30.17,SE,146,4.0,10.0,96,0.06,,-RA,0.06,0.00,VWS V14.01,2013-11-05 10:56:00,
2013-11-05 03:01:00,47.5,46.4,30.17,SE,144,3.0,10.0,96,0.05,,-RA,0.06,0.00,VWS V14.01,2013-11-05 11:01:00,
2013-11-05 03:06:00,47.5,46.4,30.17,SE,146,2.0,8.0,96,0.05,,-RA,0.06,0.00,VWS V14.01,2013-11-05 11:06:00,
2013-11-05 03:11:00,47.5,46.4,30.16,SE,144,3.0,9.0,96,0.06,,-RA,0.07,0.00,VWS V14.01,2013-11-05 11:11:00,
2013-11-05 03:16:00,47.6,46.5,30.17,SSE,148,8.0,10.0,96,0.06,,-RA,0.07,0.00,VWS V14.01,2013-11-05 11:16:00,
2013-11-05 03:21:00,47.5,46.4,30.17,SE,142,3.0,10.0,96,0.06,,-RA,0.07,0.00,VWS V14.01,2013-11-05 11:21:00,
2013-11-05 03:26:00,47.5,46.4,30.17,SE,144,5.0,9.0,96,0.06,,-RA,0.07,0.00,VWS V14.01,2013-11-05 11:26:00,
2013-11-05 03:31:00,47.5,46.4,30.17,SE,145,0.0,8.0,96,0.01,,-RA,0.07,0.00,VWS V14.01,2013-11-05 11:31:00,
2013-11-05 03:36:00,47.6,46.8,30.17,SSE,147,3.0,7.0,97,0.01,,-RA,0.07,0.00,VWS V14.01,2013-11-05 11:36:00,
2013-11-05 03:41:00,47.6,46.5,30.17,SSE,148,3.0,7.0,96,0.01,,-RA,0.07,0.00,VWS V14.01,2013-11-05 11:41:00,
2013-11-05 03:46:00,47.6,46.5,30.17,SSE,147,5.0,7.0,96,0.01,,-RA,0.07,0.00,VWS V14.01,2013-11-05 11:46:00,
2013-11-05 03:51:00,47.5,46.4,30.17,SSE,148,5.0,7.0,96,0.01,,-RA,0.07,0.00,VWS V14.01,2013-11-05 11:51:00,
2013-11-05 03:56:00,47.6,46.5,30.17,SSE,148,3.0,7.0,96,0.02,,-RA,0.08,0.00,VWS V14.01,2013-11-05 11:56:00,
2013-11-05 04:01:00,47.5,46.4,30.17,SSE,148,4.0,6.0,96,0.02,,OVC020,0.08,0.00,VWS V14.01,2013-11-05 12:01:00,
2013-11-05 04:06:00,47.5,46.7,30.17,SSE,147,5.0,8.0,97,0.02,,OVC020,0.08,0.00,VWS V14.01,2013-11-05 12:06:00,
2013-11-05 04:11:00,47.5,46.7,30.17,SSE,148,2.0,8.0,97,0.02,,OVC020,0.08,0.00,VWS V14.01,2013-11-05 12:11:00,
2013-11-05 04:16:00,47.5,46.7,30.17,SSE,148,6.0,9.0,97,0.02,,OVC020,0.08,0.00,VWS V14.01,2013-11-05 12:16:00,
2013-11-05 04:21:00,47.5,46.7,30.17,SSE,148,5.0,9.0,97,0.02,,OVC020,0.08,0.00,VWS V14.01,2013-11-05 12:21:00,
2013-11-05 04:26:00,47.5,46.7,30.17,SE,146,3.0,9.0,97,0.02,,OVC020,0.08,0.00,VWS V14.01,2013-11-05 12:26:00,
2013-11-05 04:31:00,47.5,46.7,30.17,SE,146,1.0,9.0,97,0.01,,OVC020,0.08,0.00,VWS V14.01,2013-11-05 12:31:00,
2013-11-05 04:36:00,47.5,46.7,30.17,SSE,148,1.0,7.0,97,0.01,,OVC020,0.08,0.00,VWS V14.01,2013-11-05 12:36:00,
2013-11-05 04:41:00,47.5,46.7,30.17,SSE,147,4.0,7.0,97,0.01,,OVC020,0.08,0.00,VWS V14.01,2013-11-05 12:41:00,
2013-11-05 04:46:00,47.5,46.7,30.17,SSE,151,4.0,8.0,97,0.01,,OVC020,0.08,0.00,VWS V14.01,2013-11-05 12:46:00,
2013-11-05 04:51:00,47.5,46.7,30.17,SSE,148,3.0,8.0,97,0.01,,OVC020,0.08,0.00,VWS V14.01,2013-11-05 12:51:00,
2013-11-05 04:56:00,47.5,46.7,30.17,SE,146,8.0,8.0,97,0.01,,OVC020,0.08,0.00,VWS V14.01,2013-11-05 12:56:00,
2013-11-05 05:01:00,47.5,46.7,30.17,SSE,147,5.0,10.0,97,0.00,,OVC020,0.08,0.00,VWS V14.01,2013-11-05 13:01:00,
2013-11-05 05:06:00,47.6,46.8,30.17,SSE,148,5.0,10.0,97,0.00,,OVC020,0.08,0.00,VWS V14.01,2013-11-05 13:06:00,
2013-11-05 05:11:00,47.6,46.8,30.17,SSE,148,5.0,8.0,97,0.00,,OVC020,0.08,0.00,VWS V14.01,2013-11-05 13:11:00,
2013-11-05 05:16:00,47.6,46.8,30.17,SSE,150,2.0,8.0,97,0.00,,OVC020,0.08,0.00,VWS V14.01,2013-11-05 13:16:00,
2013-11-05 05:21:00,47.6,46.8,30.17,SSE,155,6.0,9.0,97,0.00,,OVC020,0.08,0.00,VWS V14.01,2013-11-05 13:21:00,
2013-11-05 05:26:00,47.6,46.8,30.17,SSE,153,4.0,9.0,97,0.00,,OVC020,0.08,0.00,VWS V14.01,2013-11-05 13:26:00,
2013-11-05 05:31:00,47.7,46.9,30.17,SSE,154,5.0,8.0,97,0.00,,OVC020,0.08,0.00,VWS V14.01,2013-11-05 13:31:00,
2013-11-05 05:36:00,47.7,46.9,30.17,SSE,148,4.0,8.0,97,0.00,,OVC020,0.08,0.00,VWS V14.01,2013-11-05 13:36:00,
2013-11-05 05:41:00,47.7,46.9,30.17,SSE,148,4.0,8.0,97,0.00,,OVC020,0.08,0.00,VWS V14.01,2013-11-05 13:41:00,
2013-11-05 05:46:00,47.7,46.9,30.17,SE,144,3.0,10.0,97,0.00,,OVC020,0.08,0.00,VWS V14.01,2013-11-05 13:46:00,
2013-11-05 05:51:00,47.7,46.9,30.17,SSE,149,4.0,10.0,97,0.00,,OVC020,0.08,0.00,VWS V14.01,2013-11-05 13:51:00,
2013-11-05 05:56:00,47.7,46.9,30.17,SSE,154,3.0,8.0,97,0.01,,OVC020,0.09,0.00,VWS V14.01,2013-11-05 13:56:00,
2013-11-05 06:01:00,47.7,46.9,30.17,SSE,154,3.0,8.0,97,0.01,,-RA,0.09,0.00,VWS V14.01,2013-11-05 14:01:00,
2013-11-05 06:06:00,47.7,46.9,30.18,SSE,155,2.0,6.0,97,0.01,,-RA,0.09,0.00,VWS V14.01,2013-11-05 14:06:00,
2013-11-05 06:11:00,47.7,46.9,30.18,SSE,151,5.0,9.0,97,0.01,,-RA,0.09,0.00,VWS V14.01,2013-11-05 14:11:00,
2013-11-05 06:16:00,47.8,47.0,30.18,SSE,150,5.0,9.0,97,0.01,,-RA,0.09,0.00,VWS V14.01,2013-11-05 14:16:00,
2013-11-05 06:21:00,47.8,47.0,30.18,SSE,150,2.0,6.0,97,0.01,,-RA,0.09,0.00,VWS V14.01,2013-11-05 14:21:00,
2013-11-05 06:26:00,47.8,47.0,30.18,SSE,150,3.0,8.0,97,0.01,,-RA,0.09,0.00,VWS V14.01,2013-11-05 14:26:00,
2013-11-05 06:31:00,47.8,47.0,30.18,SSE,150,4.0,8.0,97,0.01,,-RA,0.09,0.00,VWS V14.01,2013-11-05 14:31:00,
2013-11-05 06:36:00,47.8,47.0,30.18,SSE,151,5.0,7.0,97,0.01,,-RA,0.09,0.00,VWS V14.01,2013-11-05 14:36:00,
2013-11-05 06:41:00,47.9,47.1,30.18,SSE,148,2.0,8.0,97,0.01,,-RA,0.09,0.00,VWS V14.01,2013-11-05 14:41:00,
2013-11-05 06:46:00,47.9,47.1,30.18,SSE,149,0.0,8.0,97,0.01,,-RA,0.09,0.00,VWS V14.01,2013-11-05 14:46:00,
2013-11-05 06:51:00,47.9,47.1,30.18,SSE,148,6.0,7.0,97,0.01,,-RA,0.09,0.00,VWS V14.01,2013-11-05 14:51:00,
2013-11-05 06:56:00,47.9,47.1,30.18,SSE,152,6.0,7.0,97,0.02,,-RA,0.10,0.00,VWS V14.01,2013-11-05 14:56:00,
2013-11-05 07:01:00,47.9,47.1,30.18,SSE,148,4.0,7.0,97,0.01,,-RA,0.10,0.00,VWS V14.01,2013-11-05 15:01:00,
2013-11-05 07:06:00,48.0,47.2,30.18,SSE,148,2.0,7.0,97,0.01,,-RA,0.10,0.00,VWS V14.01,2013-11-05 15:06:00,
2013-11-05 07:11:00,48.0,47.2,30.19,SSE,148,6.0,7.0,97,0.01,,-RA,0.10,0.00,VWS V14.01,2013-11-05 15:11:00,
2013-11-05 07:16:00,48.1,47.3,30.19,SSE,148,2.0,7.0,97,0.01,,-RA,0.10,0.00,VWS V14.01,2013-11-05 15:16:00,
2013-11-05 07:21:00,48.1,47.3,30.19,SE,146,4.0,7.0,97,0.01,,-RA,0.10,5.00,VWS V14.01,2013-11-05 15:21:00,
2013-11-05 07:25:00,48.1,47.3,30.19,SE,146,3.0,6.0,97,0.01,,-RA,0.10,11.00,VWS V14.01,2013-11-05 15:25:00,
2013-11-05 07:30:00,48.2,47.4,30.19,SE,146,4.0,7.0,97,0.01,,-RA,0.10,14.00,VWS V14.01,2013-11-05 15:30:00,
2013-11-05 07:35:00,48.3,47.5,30.19,SE,146,4.0,7.0,97,0.01,,-RA,0.10,11.00,VWS V14.01,2013-11-05 15:35:00,
2013-11-05 07:40:00,48.3,47.5,30.19,SE,146,2.0,6.0,97,0.01,,-RA,0.10,7.00,VWS V14.01,2013-11-05 15:40:00,
2013-11-05 07:45:00,48.3,47.5,30.20,SE,146,3.0,7.0,97,0.01,,-RA,0.10,11.00,VWS V14.01,2013-11-05 15:45:00,
2013-11-05 07:50:00,48.3,47.5,30.20,SSE,148,2.0,7.0,97,0.01,,-RA,0.10,11.00,VWS V14.01,2013-11-05 15:50:00,
2013-11-05 07:55:00,48.4,47.6,30.20,SSE,148,1.0,7.0,97,0.01,,-RA,0.10,7.00,VWS V14.01,2013-11-05 15:55:00,
2013-11-05 08:00:00,48.4,47.6,30.20,SSE,148,0.0,6.0,97,0.00,,OVC020,0.10,12.00,VWS V14.01,2013-11-05 16:00:00,
2013-11-05 08:05:00,48.4,47.6,30.21,SSE,148,0.0,6.0,97,0.01,,OVC020,0.11,16.00,VWS V14.01,2013-11-05 16:05:00,
2013-11-05 08:10:00,48.5,47.7,30.21,SSE,148,3.0,5.0,97,0.01,,OVC020,0.11,14.00,VWS V14.01,2013-11-05 16:10:00,
2013-11-05 08:15:00,48.6,47.8,30.21,SSE,148,3.0,6.0,97,0.01,,OVC020,0.11,35.00,VWS V14.01,2013-11-05 16:15:00,
2013-11-05 08:20:00,48.7,47.9,30.21,SSE,148,1.0,6.0,97,0.01,,OVC020,0.11,39.00,VWS V14.01,2013-11-05 16:20:00,
2013-11-05 08:25:00,48.8,48.0,30.22,SSE,148,0.0,5.0,97,0.01,,OVC020,0.11,39.00,VWS V14.01,2013-11-05 16:25:00,
2013-11-05 08:30:00,48.8,48.0,30.22,SSE,148,0.0,5.0,97,0.01,,OVC020,0.11,46.00,VWS V14.01,2013-11-05 16:30:00,
2013-11-05 08:35:00,49.0,48.2,30.22,SSE,148,2.0,5.0,97,0.01,,OVC020,0.11,62.00,VWS V14.01,2013-11-05 16:35:00,
2013-11-05 08:40:00,49.1,48.3,30.22,SSE,148,4.0,7.0,97,0.01,,OVC020,0.11,60.00,VWS V14.01,2013-11-05 16:40:00,
2013-11-05 08:45:00,49.3,48.5,30.22,SSE,148,1.0,7.0,97,0.01,,OVC020,0.11,58.00,VWS V14.01,2013-11-05 16:45:00,
2013-11-05 08:50:00,49.3,48.5,30.22,SSE,148,6.0,6.0,97,0.01,,OVC020,0.11,42.00,VWS V14.01,2013-11-05 16:50:00,
2013-11-05 08:55:00,49.4,48.6,30.22,SSE,148,2.0,6.0,97,0.01,,OVC020,0.11,42.00,VWS V14.01,2013-11-05 16:55:00,
2013-11-05 09:00:00,49.6,48.8,30.22,SSE,148,0.0,6.0,97,0.01,,OVC025,0.11,42.00,VWS V14.01,2013-11-05 17:00:00,
2013-11-05 09:05:00,49.6,48.8,30.22,SSE,148,3.0,5.0,97,0.01,,OVC025,0.11,51.00,VWS V14.01,2013-11-05 17:05:00,
2013-11-05 09:10:00,49.7,48.9,30.22,SSE,148,3.0,5.0,97,0.01,,OVC025,0.11,30.00,VWS V14.01,2013-11-05 17:10:00,
2013-11-05 09:15:00,49.7,48.9,30.23,SSE,148,1.0,6.0,97,0.01,,OVC025,0.11,44.00,VWS V14.01,2013-11-05 17:15:00,
2013-11-05 09:20:00,49.8,49.0,30.23,SSE,148,4.0,6.0,97,0.02,,OVC025,0.12,26.00,VWS V14.01,2013-11-05 17:20:00,
2013-11-05 09:25:00,49.8,49.0,30.22,SSE,148,0.0,5.0,97,0.03,,OVC025,0.13,28.00,VWS V14.01,2013-11-05 17:25:00,
2013-11-05 09:30:00,49.7,48.9,30.22,SSE,148,3.0,4.0,97,0.02,,OVC025,0.13,44.00,VWS V14.01,2013-11-05 17:30:00,
2013-11-05 09:35:00,49.8,49.0,30.21,SSE,147,5.0,8.0,97,0.02,,OVC025,0.13,69.00,VWS V14.01,2013-11-05 17:35:00,
2013-11-05 09:40:00,49.8,49.0,30.22,SE,146,3.0,8.0,97,0.03,,-RA,0.14,63.00,VWS V14.01,2013-11-05 17:40:00,
2013-11-05 09:45:00,49.9,49.1,30.22,SE,146,2.0,6.0,97,0.03,,-RA,0.14,49.00,VWS V14.01,2013-11-05 17:45:00,
2013-11-05 09:50:00,49.9,49.1,30.22,SE,146,3.0,5.0,97,0.03,,-RA,0.14,74.00,VWS V14.01,2013-11-05 17:50:00,
2013-11-05 09:55:00,49.9,49.1,30.23,SE,146,2.0,5.0,97,0.03,,-RA,0.14,72.00,VWS V14.01,2013-11-05 17:55:00,
2013-11-05 10:00:00,49.9,49.1,30.22,SE,146,4.0,5.0,97,0.03,,OVC045,0.14,79.00,VWS V14.01,2013-11-05 18:00:00,
2013-11-05 10:05:00,50.0,49.2,30.22,SE,146,0.0,5.0,97,0.03,,OVC045,0.14,67.00,VWS V14.01,2013-11-05 18:05:00,
2013-11-05 10:10:00,50.0,49.2,30.22,SE,146,0.0,6.0,97,0.03,,OVC045,0.14,86.00,VWS V14.01,2013-11-05 18:10:00,
2013-11-05 10:15:00,50.1,49.3,30.22,SE,146,4.0,6.0,97,0.03,,OVC045,0.14,69.00,VWS V14.01,2013-11-05 18:15:00,
2013-11-05 10:20:00,50.3,49.5,30.22,SE,146,1.0,7.0,97,0.03,,OVC045,0.14,46.00,VWS V14.01,2013-11-05 18:20:00,
2013-11-05 10:25:00,50.3,49.5,30.22,SE,146,3.0,7.0,97,0.03,,OVC045,0.14,40.00,VWS V14.01,2013-11-05 18:25:00,
2013-11-05 10:30:00,50.3,49.5,30.22,SE,146,0.0,6.0,97,0.01,,OVC045,0.14,53.00,VWS V14.01,2013-11-05 18:30:00,
2013-11-05 10:35:00,50.4,49.6,30.23,SE,146,3.0,5.0,97,0.01,,OVC045,0.14,49.00,VWS V14.01,2013-11-05 18:35:00,
2013-11-05 10:40:00,50.4,49.6,30.23,SE,146,0.0,5.0,97,0.01,,OVC045,0.14,53.00,VWS V14.01,2013-11-05 18:40:00,
2013-11-05 10:45:00,50.5,49.7,30.22,SE,146,2.0,4.0,97,0.01,,OVC045,0.14,63.00,VWS V14.01,2013-11-05 18:45:00,
2013-11-05 10:50:00,50.7,49.9,30.23,SE,146,0.0,5.0,97,0.01,,OVC045,0.14,70.00,VWS V14.01,2013-11-05 18:50:00,
2013-11-05 10:55:00,50.8,50.0,30.23,SE,146,0.0,5.0,97,0.01,,OVC045,0.14,104.00,VWS V14.01,2013-11-05 18:55:00,
2013-11-05 11:00:00,51.1,50.3,30.23,SE,146,1.0,4.0,97,0.00,,OVC024,0.14,58.00,VWS V14.01,2013-11-05 19:00:00,
2013-11-05 11:05:00,51.1,50.3,30.23,SE,146,0.0,5.0,97,0.00,,OVC024,0.14,56.00,VWS V14.01,2013-11-05 19:05:00,
2013-11-05 11:10:00,51.2,50.4,30.23,SE,146,3.0,5.0,97,0.00,,OVC024,0.14,69.00,VWS V14.01,2013-11-05 19:10:00,
2013-11-05 11:15:00,51.4,50.6,30.23,SE,146,3.0,6.0,97,0.00,,OVC024,0.14,56.00,VWS V14.01,2013-11-05 19:15:00,
2013-11-05 11:20:00,51.5,50.7,30.23,SE,146,3.0,6.0,97,0.00,,OVC024,0.14,70.00,VWS V14.01,2013-11-05 19:20:00,
2013-11-05 11:25:00,51.6,50.8,30.23,SE,146,3.0,5.0,97,0.00,,OVC024,0.14,67.00,VWS V14.01,2013-11-05 19:25:00,
2013-11-05 11:30:00,51.7,50.9,30.23,SSE,160,3.0,7.0,97,0.00,,OVC024,0.14,81.00,VWS V14.01,2013-11-05 19:30:00,
2013-11-05 11:35:00,51.9,51.1,30.22,South,169,3.0,8.0,97,0.00,,OVC024,0.14,81.00,VWS V14.01,2013-11-05 19:35:00,
2013-11-05 11:40:00,52.1,51.3,30.22,South,169,4.0,8.0,97,0.00,,OVC024,0.14,98.00,VWS V14.01,2013-11-05 19:40:00,
2013-11-05 11:45:00,52.2,51.4,30.23,South,171,5.0,7.0,97,0.00,,OVC024,0.14,86.00,VWS V14.01,2013-11-05 19:45:00,
2013-11-05 11:50:00,52.4,51.3,30.22,South,173,3.0,11.0,96,0.00,,OVC024,0.14,156.00,VWS V14.01,2013-11-05 19:50:00,
2013-11-05 11:55:00,52.7,51.6,30.22,South,169,5.0,11.0,96,0.00,,OVC024,0.14,116.00,VWS V14.01,2013-11-05 19:55:00,
2013-11-05 12:00:00,53.0,51.9,30.22,South,173,4.0,8.0,96,0.00,,OVC039,0.14,127.00,VWS V14.01,2013-11-05 20:00:00,
2013-11-05 12:05:00,53.2,52.1,30.21,South,174,4.0,8.0,96,0.00,,OVC039,0.14,134.00,VWS V14.01,2013-11-05 20:05:00,
2013-11-05 12:10:00,53.4,52.0,30.21,South,177,4.0,11.0,95,0.00,,OVC039,0.14,142.00,VWS V14.01,2013-11-05 20:10:00,
2013-11-05 12:15:00,53.6,52.2,30.21,SSE,166,8.0,11.0,95,0.00,,OVC039,0.14,121.00,VWS V14.01,2013-11-05 20:15:00,
2013-11-05 12:20:00,53.5,51.8,30.20,SSE,164,5.0,11.0,94,0.00,,OVC039,0.14,114.00,VWS V14.01,2013-11-05 20:20:00,
2013-11-05 12:25:00,53.6,51.6,30.20,South,175,2.0,11.0,93,0.00,,OVC039,0.14,79.00,VWS V14.01,2013-11-05 20:25:00,
2013-11-05 12:30:00,53.6,51.6,30.20,South,169,2.0,11.0,93,0.00,,OVC055,0.14,77.00,VWS V14.01,2013-11-05 20:30:00,
2013-11-05 12:35:00,53.7,52.0,30.20,South,173,7.0,9.0,94,0.00,,OVC055,0.14,84.00,VWS V14.01,2013-11-05 20:35:00,
2013-11-05 12:40:00,53.7,51.7,30.20,South,175,5.0,10.0,93,0.00,,OVC055,0.14,84.00,VWS V14.01,2013-11-05 20:40:00,
2013-11-05 12:45:00,53.8,51.8,30.20,South,186,4.0,10.0,93,0.00,,OVC055,0.14,113.00,VWS V14.01,2013-11-05 20:45:00,
2013-11-05 12:50:00,53.9,51.9,30.21,South,178,2.0,10.0,93,0.00,,OVC055,0.14,134.00,VWS V14.01,2013-11-05 20:50:00,
2013-11-05 12:55:00,54.1,52.1,30.21,South,183,3.0,10.0,93,0.00,,OVC055,0.14,125.00,VWS V14.01,2013-11-05 20:55:00,
2013-11-05 13:00:00,54.3,52.3,30.21,South,187,9.0,10.0,93,0.00,,OVC055,0.14,102.00,VWS V14.01,2013-11-05 21:00:00,
2013-11-05 13:05:00,54.4,52.4,30.21,South,186,0.0,10.0,93,0.00,,OVC055,0.14,63.00,VWS V14.01,2013-11-05 21:05:00,
2013-11-05 13:10:00,54.5,52.2,30.21,South,186,3.0,6.0,92,0.00,,OVC055,0.14,100.00,VWS V14.01,2013-11-05 21:10:00,
2013-11-05 13:15:00,54.6,52.6,30.21,South,187,4.0,6.0,93,0.00,,OVC055,0.14,116.00,VWS V14.01,2013-11-05 21:15:00,
2013-11-05 13:20:00,54.7,52.4,30.21,South,171,6.0,9.0,92,0.00,,OVC055,0.14,74.00,VWS V14.01,2013-11-05 21:20:00,
2013-11-05 13:25:00,54.7,52.4,30.21,South,175,6.0,9.0,92,0.00,,OVC055,0.14,49.00,VWS V14.01,2013-11-05 21:25:00,
2013-11-05 13:30:00,54.7,52.4,30.21,South,174,8.0,9.0,92,0.00,,OVC017,0.14,42.00,VWS V14.01,2013-11-05 21:30:00,
2013-11-05 13:35:00,54.6,52.3,30.21,South,179,3.0,9.0,92,0.00,,OVC017,0.14,39.00,VWS V14.01,2013-11-05 21:35:00,
2013-11-05 13:40:00,54.5,52.2,30.21,South,185,6.0,7.0,92,0.00,,OVC017,0.14,44.00,VWS V14.01,2013-11-05 21:40:00,
2013-11-05 13:45:00,54.5,52.2,30.21,South,183,7.0,9.0,92,0.00,,OVC017,0.14,44.00,VWS V14.01,2013-11-05 21:45:00,
2013-11-05 13:50:00,54.4,52.1,30.21,South,184,6.0,9.0,92,0.00,,OVC017,0.14,30.00,VWS V14.01,2013-11-05 21:50:00,
2013-11-05 13:55:00,54.3,52.0,30.21,South,179,3.0,8.0,92,0.00,,OVC017,0.14,33.00,VWS V14.01,2013-11-05 21:55:00,
2013-11-05 14:00:00,54.2,51.9,30.22,South,188,4.0,9.0,92,0.00,,OVC017,0.14,26.00,VWS V14.01,2013-11-05 22:00:00,
2013-11-05 14:05:00,54.2,51.9,30.22,South,190,5.0,9.0,92,0.00,,OVC013,0.14,28.00,VWS V14.01,2013-11-05 22:05:00,
2013-11-05 14:10:00,54.1,51.5,30.22,SSW,194,8.0,12.0,91,0.00,,OVC013,0.14,28.00,VWS V14.01,2013-11-05 22:10:00,
2013-11-05 14:15:00,54.0,51.4,30.21,South,184,8.0,12.0,91,0.00,,OVC013,0.14,26.00,VWS V14.01,2013-11-05 22:15:00,
2013-11-05 14:20:00,54.0,51.4,30.22,South,185,2.0,10.0,91,0.00,,OVC013,0.14,26.00,VWS V14.01,2013-11-05 22:20:00,
2013-11-05 14:25:00,53.9,51.6,30.21,South,190,0.0,10.0,92,0.00,,OVC013,0.14,26.00,VWS V14.01,2013-11-05 22:25:00,
2013-11-05 14:30:00,53.9,51.6,30.21,South,180,6.0,10.0,92,0.00,,OVC013,0.14,30.00,VWS V14.01,2013-11-05 22:30:00,
2013-11-05 14:35:00,53.9,51.6,30.22,South,178,5.0,10.0,92,0.00,,OVC013,0.14,25.00,VWS V14.01,2013-11-05 22:35:00,
2013-11-05 14:40:00,53.8,51.5,30.22,South,184,3.0,10.0,92,0.00,,OVC013,0.14,26.00,VWS V14.01,2013-11-05 22:40:00,
2013-11-05 14:45:00,53.8,51.8,30.22,South,179,7.0,8.0,93,0.00,,OVC013,0.14,26.00,VWS V14.01,2013-11-05 22:45:00,
2013-11-05 14:50:00,53.8,51.8,30.22,South,185,6.0,8.0,93,0.00,,OVC013,0.14,25.00,VWS V14.01,2013-11-05 22:50:00,
2013-11-05 14:55:00,53.7,51.7,30.22,South,189,2.0,9.0,93,0.00,,OVC013,0.14,25.00,VWS V14.01,2013-11-05 22:55:00,
2013-11-05 15:00:00,53.7,51.7,30.22,South,187,5.0,10.0,93,0.00,,OVC013,0.14,28.00,VWS V14.01,2013-11-05 23:00:00,
2013-11-05 15:05:00,53.7,51.7,30.22,South,187,5.0,10.0,93,0.00,,,0.14,39.00,VWS V14.01,2013-11-05 23:05:00,
2013-11-05 15:10:00,53.7,51.7,30.22,South,186,6.0,8.0,93,0.00,,,0.14,33.00,VWS V14.01,2013-11-05 23:10:00,
2013-11-05 15:15:00,53.7,51.7,30.22,South,186,2.0,8.0,93,0.00,,,0.14,33.00,VWS V14.01,2013-11-05 23:15:00,
2013-11-05 15:20:00,53.8,51.8,30.22,South,186,2.0,8.0,93,0.00,,,0.14,30.00,VWS V14.01,2013-11-05 23:20:00,
2013-11-05 15:25:00,53.9,51.9,30.22,South,186,4.0,6.0,93,0.00,,,0.14,25.00,VWS V14.01,2013-11-05 23:25:00,
2013-11-05 15:30:00,53.9,51.9,30.22,South,188,6.0,9.0,93,0.00,,,0.14,18.00,VWS V14.01,2013-11-05 23:30:00,
2013-11-05 15:35:00,53.9,51.9,30.22,South,179,3.0,9.0,93,0.00,,,0.14,18.00,VWS V14.01,2013-11-05 23:35:00,
2013-11-05 15:40:00,53.8,51.8,30.22,South,183,4.0,10.0,93,0.00,,,0.14,19.00,VWS V14.01,2013-11-05 23:40:00,
2013-11-05 15:45:00,53.8,51.8,30.22,South,184,4.0,10.0,93,0.00,,,0.14,18.00,VWS V14.01,2013-11-05 23:45:00,
2013-11-05 15:50:00,53.8,51.8,30.23,South,184,2.0,9.0,93,0.00,,,0.14,11.00,VWS V14.01,2013-11-05 23:50:00,
2013-11-05 15:55:00,53.8,51.8,30.22,South,186,4.0,8.0,93,0.00,,,0.14,11.00,VWS V14.01,2013-11-05 23:55:00,
2013-11-05 16:00:00,53.8,51.8,30.23,South,188,4.0,8.0,93,0.00,,,0.14,9.00,VWS V14.01,2013-11-06 00:00:00,
2013-11-05 16:05:00,53.7,51.7,30.23,South,188,2.0,7.0,93,0.00,,OVC014,0.14,9.00,VWS V14.01,2013-11-06 00:05:00,
2013-11-05 16:10:00,53.7,51.7,30.23,South,190,4.0,8.0,93,0.00,,OVC014,0.14,7.00,VWS V14.01,2013-11-06 00:10:00,
2013-11-05 16:15:00,53.7,51.7,30.23,South,189,2.0,8.0,93,0.00,,OVC014,0.14,7.00,VWS V14.01,2013-11-06 00:15:00,
2013-11-05 16:20:00,53.7,51.7,30.23,South,186,3.0,7.0,93,0.00,,OVC014,0.14,5.00,VWS V14.01,2013-11-06 00:20:00,
2013-11-05 16:25:00,53.7,51.7,30.23,South,186,5.0,8.0,93,0.00,,OVC014,0.14,0.00,VWS V14.01,2013-11-06 00:25:00,
2013-11-05 16:30:00,53.7,51.7,30.23,South,186,5.0,10.0,93,0.00,,OVC014,0.14,0.00,VWS V14.01,2013-11-06 00:30:00,
2013-11-05 16:35:00,53.7,51.7,30.23,South,179,4.0,10.0,93,0.00,,OVC014,0.14,0.00,VWS V14.01,2013-11-06 00:35:00,
2013-11-05 16:40:00,53.6,51.6,30.23,South,183,3.0,9.0,93,0.00,,OVC014,0.14,0.00,VWS V14.01,2013-11-06 00:40:00,
2013-11-05 16:45:00,53.6,51.9,30.23,South,182,4.0,9.0,94,0.00,,OVC014,0.14,0.00,VWS V14.01,2013-11-06 00:45:00,
2013-11-05 16:50:00,53.6,51.9,30.23,South,180,0.0,6.0,94,0.00,,OVC014,0.14,0.00,VWS V14.01,2013-11-06 00:50:00,
2013-11-05 16:55:00,53.5,51.8,30.23,South,180,3.0,6.0,94,0.00,,OVC014,0.14,0.00,VWS V14.01,2013-11-06 00:55:00,
2013-11-05 17:00:00,53.5,51.8,30.23,South,181,1.0,7.0,94,0.00,,OVC014,0.14,0.00,VWS V14.01,2013-11-06 01:00:00,
2013-11-05 17:05:00,53.5,51.8,30.23,South,181,3.0,7.0,94,0.00,,OVC021,0.14,0.00,VWS V14.01,2013-11-06 01:05:00,
2013-11-05 17:10:00,53.5,51.8,30.23,South,179,7.0,7.0,94,0.00,,OVC021,0.14,0.00,VWS V14.01,2013-11-06 01:10:00,
2013-11-05 17:15:00,53.4,51.7,30.23,South,179,0.0,7.0,94,0.00,,OVC021,0.14,0.00,VWS V14.01,2013-11-06 01:15:00,
2013-11-05 17:20:00,53.5,51.8,30.23,South,179,0.0,6.0,94,0.00,,OVC021,0.14,0.00,VWS V14.01,2013-11-06 01:20:00,
2013-11-05 17:25:00,53.4,51.7,30.23,South,179,0.0,2.0,94,0.00,,OVC021,0.14,0.00,VWS V14.01,2013-11-06 01:25:00,
2013-11-05 17:30:00,53.4,51.7,30.23,South,179,0.0,3.0,94,0.00,,OVC021,0.14,0.00,VWS V14.01,2013-11-06 01:30:00,
2013-11-05 17:35:00,53.4,51.7,30.23,South,179,0.0,3.0,94,0.00,,OVC021,0.14,0.00,VWS V14.01,2013-11-06 01:35:00,
2013-11-05 17:40:00,53.4,51.7,30.24,South,179,0.0,4.0,94,0.00,,OVC021,0.14,0.00,VWS V14.01,2013-11-06 01:40:00,
2013-11-05 17:45:00,53.4,51.7,30.24,South,179,0.0,4.0,94,0.00,,OVC021,0.14,0.00,VWS V14.01,2013-11-06 01:45:00,
2013-11-05 17:50:00,53.4,51.7,30.24,South,179,1.0,3.0,94,0.00,,OVC021,0.14,0.00,VWS V14.01,2013-11-06 01:50:00,
2013-11-05 17:55:00,53.3,51.6,30.24,South,179,0.0,3.0,94,0.00,,OVC021,0.14,0.00,VWS V14.01,2013-11-06 01:55:00,
2013-11-05 18:00:00,53.4,52.0,30.25,South,179,0.0,3.0,95,0.00,,OVC021,0.14,0.00,VWS V14.01,2013-11-06 02:00:00,
2013-11-05 18:05:00,53.3,51.9,30.25,South,179,3.0,5.0,95,0.00,,OVC060,0.14,0.00,VWS V14.01,2013-11-06 02:05:00,
2013-11-05 18:10:00,53.3,51.9,30.25,South,179,3.0,5.0,95,0.00,,OVC060,0.14,0.00,VWS V14.01,2013-11-06 02:10:00,
2013-11-05 18:15:00,53.4,52.0,30.25,South,179,0.0,4.0,95,0.00,,OVC060,0.14,0.00,VWS V14.01,2013-11-06 02:15:00,
2013-11-05 18:20:00,53.3,51.9,30.25,South,179,0.0,4.0,95,0.00,,OVC060,0.14,0.00,VWS V14.01,2013-11-06 02:20:00,
2013-11-05 18:25:00,53.3,51.9,30.25,South,179,3.0,4.0,95,0.00,,OVC060,0.14,0.00,VWS V14.01,2013-11-06 02:25:00,
2013-11-05 18:30:00,53.3,51.9,30.25,South,179,0.0,4.0,95,0.00,,OVC060,0.14,0.00,VWS V14.01,2013-11-06 02:30:00,
2013-11-05 18:35:00,53.3,51.9,30.25,South,179,0.0,4.0,95,0.00,,OVC060,0.14,0.00,VWS V14.01,2013-11-06 02:35:00,
2013-11-05 18:40:00,53.3,51.9,30.25,South,179,0.0,4.0,95,0.00,,OVC060,0.14,0.00,VWS V14.01,2013-11-06 02:40:00,
2013-11-05 18:45:00,53.3,51.9,30.25,South,179,0.0,4.0,95,0.00,,OVC060,0.14,0.00,VWS V14.01,2013-11-06 02:45:00,
2013-11-05 18:50:00,53.3,51.9,30.26,South,179,0.0,3.0,95,0.00,,OVC060,0.14,0.00,VWS V14.01,2013-11-06 02:50:00,
2013-11-05 18:55:00,53.3,51.9,30.26,South,179,2.0,3.0,95,0.00,,OVC060,0.14,0.00,VWS V14.01,2013-11-06 02:55:00,
2013-11-05 19:00:00,53.3,51.9,30.26,South,179,0.0,3.0,95,0.00,,OVC060,0.14,0.00,VWS V14.01,2013-11-06 03:00:00,
2013-11-05 19:05:00,53.3,51.9,30.26,South,179,2.0,4.0,95,0.00,,,0.14,0.00,VWS V14.01,2013-11-06 03:05:00,
2013-11-05 19:09:00,53.2,51.8,30.26,South,179,0.0,4.0,95,0.00,,,0.14,0.00,VWS V14.01,2013-11-06 03:09:00,
2013-11-05 19:14:00,53.2,52.1,30.25,South,179,3.0,4.0,96,0.00,,,0.14,0.00,VWS V14.01,2013-11-06 03:14:00,
2013-11-05 19:19:00,53.1,52.0,30.25,South,179,4.0,4.0,96,0.00,,,0.14,0.00,VWS V14.01,2013-11-06 03:19:00,
2013-11-05 19:24:00,53.1,52.0,30.26,South,179,3.0,6.0,96,0.00,,,0.14,0.00,VWS V14.01,2013-11-06 03:24:00,
2013-11-05 19:29:00,53.0,51.9,30.26,South,179,0.0,6.0,96,0.00,,,0.14,0.00,VWS V14.01,2013-11-06 03:29:00,
2013-11-05 19:34:00,53.0,51.9,30.25,South,179,3.0,5.0,96,0.00,,,0.14,0.00,VWS V14.01,2013-11-06 03:34:00,
2013-11-05 19:39:00,53.0,51.9,30.25,South,179,2.0,4.0,96,0.00,,,0.14,0.00,VWS V14.01,2013-11-06 03:39:00,
2013-11-05 19:44:00,52.9,51.8,30.25,South,179,4.0,6.0,96,0.00,,,0.14,0.00,VWS V14.01,2013-11-06 03:44:00,
2013-11-05 19:49:00,52.9,51.8,30.26,South,179,1.0,6.0,96,0.00,,,0.14,0.00,VWS V14.01,2013-11-06 03:49:00,
2013-11-05 19:54:00,52.8,51.7,30.26,South,179,0.0,4.0,96,0.00,,,0.14,0.00,VWS V14.01,2013-11-06 03:54:00,
2013-11-05 19:59:00,52.8,51.7,30.26,South,179,0.0,4.0,96,0.00,,,0.14,0.00,VWS V14.01,2013-11-06 03:59:00,
2013-11-05 20:04:00,52.7,51.6,30.26,South,179,0.0,4.0,96,0.00,,OVC065,0.14,0.00,VWS V14.01,2013-11-06 04:04:00,
2013-11-05 20:09:00,52.6,51.5,30.26,South,179,0.0,2.0,96,0.00,,OVC065,0.14,0.00,VWS V14.01,2013-11-06 04:09:00,
2013-11-05 20:14:00,52.6,51.8,30.26,South,179,0.0,4.0,97,0.00,,OVC065,0.14,0.00,VWS V14.01,2013-11-06 04:14:00,
2013-11-05 20:19:00,52.7,51.9,30.26,South,179,0.0,4.0,97,0.00,,OVC065,0.14,0.00,VWS V14.01,2013-11-06 04:19:00,
2013-11-05 20:24:00,52.7,51.9,30.26,South,179,0.0,3.0,97,0.00,,OVC065,0.14,0.00,VWS V14.01,2013-11-06 04:24:00,
2013-11-05 20:29:00,52.7,51.9,30.26,South,179,0.0,3.0,97,0.00,,OVC065,0.14,0.00,VWS V14.01,2013-11-06 04:29:00,
2013-11-05 20:34:00,52.7,51.9,30.26,South,179,0.0,3.0,97,0.00,,OVC065,0.14,0.00,VWS V14.01,2013-11-06 04:34:00,
2013-11-05 20:39:00,52.7,51.9,30.27,South,179,1.0,3.0,97,0.00,,OVC065,0.14,0.00,VWS V14.01,2013-11-06 04:39:00,
2013-11-05 20:44:00,52.6,51.8,30.27,South,179,2.0,3.0,97,0.00,,OVC065,0.14,0.00,VWS V14.01,2013-11-06 04:44:00,
2013-11-05 20:49:00,52.6,51.8,30.27,South,179,0.0,3.0,97,0.00,,OVC065,0.14,0.00,VWS V14.01,2013-11-06 04:49:00,
2013-11-05 20:54:00,52.6,51.8,30.27,South,179,0.0,3.0,97,0.00,,OVC065,0.14,0.00,VWS V14.01,2013-11-06 04:54:00,
2013-11-05 20:59:00,52.6,51.8,30.27,South,179,0.0,3.0,97,0.00,,OVC065,0.14,0.00,VWS V14.01,2013-11-06 04:59:00,
2013-11-05 21:01:00,52.7,51.9,30.27,South,179,0.0,3.0,97,0.00,,OVC060,0.14,0.00,VWS V14.01,2013-11-06 05:01:00,
2013-11-05 21:02:00,52.7,51.9,30.27,South,179,0.0,3.0,97,0.00,,OVC060,0.14,0.00,VWS V14.01,2013-11-06 05:02:00,
2013-11-05 21:07:00,52.6,51.8,30.27,South,179,0.0,3.0,97,0.00,,OVC060,0.14,0.00,VWS V14.01,2013-11-06 05:07:00,
2013-11-05 21:12:00,52.7,51.9,30.27,South,179,3.0,3.0,97,0.00,,OVC060,0.14,0.00,VWS V14.01,2013-11-06 05:12:00,
2013-11-05 21:17:00,52.6,51.8,30.27,South,179,0.0,3.0,97,0.00,,OVC060,0.14,0.00,VWS V14.01,2013-11-06 05:17:00,
2013-11-05 21:22:00,52.7,51.9,30.27,South,179,0.0,3.0,97,0.00,,OVC060,0.14,0.00,VWS V14.01,2013-11-06 05:22:00,
2013-11-05 21:27:00,52.6,51.8,30.28,South,179,0.0,3.0,97,0.00,,OVC060,0.14,0.00,VWS V14.01,2013-11-06 05:27:00,
2013-11-05 21:32:00,52.7,51.9,30.28,South,179,1.0,3.0,97,0.00,,OVC060,0.14,0.00,VWS V14.01,2013-11-06 05:32:00,
2013-11-05 21:37:00,52.7,51.9,30.28,South,179,0.0,3.0,97,0.00,,OVC060,0.14,0.00,VWS V14.01,2013-11-06 05:37:00,
2013-11-05 21:42:00,52.7,51.9,30.28,South,179,0.0,3.0,97,0.00,,OVC060,0.14,0.00,VWS V14.01,2013-11-06 05:42:00,
2013-11-05 21:47:00,52.7,51.9,30.28,South,179,0.0,2.0,97,0.00,,OVC060,0.14,0.00,VWS V14.01,2013-11-06 05:47:00,
2013-11-05 21:52:00,52.7,51.9,30.28,South,179,0.0,2.0,97,0.00,,OVC060,0.14,0.00,VWS V14.01,2013-11-06 05:52:00,
2013-11-05 21:57:00,52.8,52.2,30.28,South,179,0.0,3.0,98,0.00,,OVC060,0.14,0.00,VWS V14.01,2013-11-06 05:57:00,
2013-11-05 22:02:00,52.8,52.2,30.28,South,179,1.0,3.0,98,0.00,,OVC050,0.14,0.00,VWS V14.01,2013-11-06 06:02:00,
2013-11-05 22:07:00,52.7,51.9,30.28,South,179,0.0,2.0,97,0.00,,OVC050,0.14,0.00,VWS V14.01,2013-11-06 06:07:00,
2013-11-05 22:12:00,52.7,51.9,30.28,South,179,0.0,3.0,97,0.00,,OVC050,0.14,0.00,VWS V14.01,2013-11-06 06:12:00,
2013-11-05 22:17:00,52.7,52.2,30.28,South,179,2.0,3.0,98,0.01,,OVC050,0.15,0.00,VWS V14.01,2013-11-06 06:17:00,
2013-11-05 22:22:00,52.7,51.9,30.28,South,179,0.0,3.0,97,0.01,,OVC050,0.15,0.00,VWS V14.01,2013-11-06 06:22:00,
2013-11-05 22:27:00,52.6,51.8,30.28,South,179,0.0,3.0,97,0.01,,OVC050,0.15,0.00,VWS V14.01,2013-11-06 06:27:00,
2013-11-05 22:32:00,52.6,51.8,30.28,South,179,0.0,1.0,97,0.01,,OVC050,0.15,0.00,VWS V14.01,2013-11-06 06:32:00,
2013-11-05 22:37:00,52.6,51.8,30.28,South,179,0.0,2.0,97,0.01,,OVC050,0.15,0.00,VWS V14.01,2013-11-06 06:37:00,
2013-11-05 22:42:00,52.6,51.8,30.28,South,179,0.0,3.0,97,0.01,,OVC050,0.15,0.00,VWS V14.01,2013-11-06 06:42:00,
2013-11-05 22:47:00,52.6,51.8,30.28,South,179,1.0,3.0,97,0.01,,OVC050,0.15,0.00,VWS V14.01,2013-11-06 06:47:00,
2013-11-05 22:52:00,52.6,51.8,30.29,South,179,3.0,3.0,97,0.01,,OVC050,0.15,0.00,VWS V14.01,2013-11-06 06:52:00,
2013-11-05 22:57:00,52.6,51.8,30.28,South,179,3.0,5.0,97,0.01,,OVC050,0.15,0.00,VWS V14.01,2013-11-06 06:57:00,
2013-11-05 23:02:00,52.7,52.2,30.28,South,179,2.0,5.0,98,0.01,,OVC041,0.15,0.00,VWS V14.01,2013-11-06 07:02:00,
2013-11-05 23:07:00,52.7,51.9,30.28,South,179,0.0,4.0,97,0.01,,OVC041,0.15,0.00,VWS V14.01,2013-11-06 07:07:00,
2013-11-05 23:12:00,52.7,52.2,30.28,South,179,3.0,5.0,98,0.01,,OVC041,0.15,0.00,VWS V14.01,2013-11-06 07:12:00,
2013-11-05 23:17:00,52.8,52.2,30.28,South,179,0.0,5.0,98,0.01,,OVC041,0.15,0.00,VWS V14.01,2013-11-06 07:17:00,
2013-11-05 23:22:00,52.8,52.2,30.28,South,179,3.0,4.0,98,0.01,,OVC041,0.15,0.00,VWS V14.01,2013-11-06 07:22:00,
2013-11-05 23:27:00,52.8,52.2,30.28,South,179,1.0,4.0,98,0.01,,OVC041,0.15,0.00,VWS V14.01,2013-11-06 07:27:00,
2013-11-05 23:32:00,52.8,52.2,30.28,South,179,0.0,4.0,98,0.00,,OVC041,0.15,0.00,VWS V14.01,2013-11-06 07:32:00,
2013-11-05 23:37:00,52.8,52.2,30.28,South,179,0.0,4.0,98,0.00,,OVC041,0.15,0.00,VWS V14.01,2013-11-06 07:37:00,
2013-11-05 23:42:00,52.7,52.2,30.28,South,179,0.0,3.0,98,0.00,,OVC041,0.15,0.00,VWS V14.01,2013-11-06 07:42:00,
2013-11-05 23:47:00,52.7,52.2,30.28,South,179,0.0,3.0,98,0.00,,OVC041,0.15,0.00,VWS V14.01,2013-11-06 07:47:00,
2013-11-05 23:52:00,52.7,51.9,30.28,South,179,0.0,1.0,97,0.00,,OVC041,0.15,0.00,VWS V14.01,2013-11-06 07:52:00,
2013-11-05 23:57:00,52.7,51.9,30.28,South,179,0.0,1.0,97,0.00,,OVC041,0.15,0.00,VWS V14.01,2013-11-06 07:57:00,